COSMOS 1275 DEB, 17025

Orbit data source: Space-Track

COSMOS 1275 DEB, 17025 is space debris in LEO originally from a launch on Thu, 04 Jun 1981 UTC launched from the Plesetsk Missile And Space Complex (PKMTR). Debris objects in space refer to the collection of defunct objects orbiting the Earth. Examples of debris include non-operational satellites, rocket bodies, and fragments generated from explosions, collisions, or faulty payload assembly.

Loading next visibility...
Identifier
17025, 1981-053KF
Orbit
LEO
Country
Flag of CISCIS
Related business
Manufacturer
Unknown
Mission
Spacecraft
Bus & Motor
Unknown
Mass
Unknown
Launch date (UTC)
1981-06-04 (45 years ago)
Launch vehicle
Unknown
Launch site
Plesetsk Missile And Space Complex (PKMTR)
Object type
Payload
Rocket body
Debris
Shape & HBR
Unknown shape, 0.1 m
Radar Cross Section
Small (<0.1 m²)

Expand to show TLE details & history
Last TLE update: 2 days ago

TLE from 2 days ago
0 COSMOS 1275 DEB
1 17025U 81053KF  25354.06687715  .00000663  00000-0  58989-3 0  9998
2 17025  82.8259 208.7805 0071069 195.8266 317.3125 13.82189593 39521
Epoch: 2025-12-20T01:36Z
TLE epoch observation values (Epoch: 2025-12-20T01:36:18.185Z)
Latitude
27.22297°
Longitude
-87.88743°
Altitude
921.308 km
Speed
7.413 km/s
True Right ascension
01h 40m 20s
True Declination
27° 05' 11"
Sunlit
Object was in full shadow at epoch
Visualization orbit readout
Latitude
Unknown
Longitude
Unknown
Altitude
Unknown
Speed
Unknown
Apparent Right ascension
Unknown
Apparent Declination
Unknown
Sunlit
N/A
Visualization observer readout
Local Sidereal Time
16:17:21
Azimuth
Unknown
Elevation
Unknown
Doppler factor
Unknown
Orbital elements
Apogee altitude
1,005.378 km
Perigee altitude
901.17 km
Semi-major axis
7,331.411 km
Eccentricity
0.00711
Inclination
82.8259°
RAAN
208.7805°
Arg. of periapsis
195.8266°
True anomaly
316.75672°
Mean anomaly
317.3125°
Eccentric anomaly
317.03498°
Mean motion
3.4575 °/min
Orbital period
104.12 mins
BSTAR
0.00058989
Loading maneuver chart data...
Computing Atmospheric mass density...
Loading historical data...
Loading historical data...
Loading historical data...
Loading historical data...
Loading historical data...
Loading historical data...
Loading historical data...

Documentation

Showing up to 5 results
|